2019-037D (44368 NORAD) Tracking and Keplerian Element Data

This shows tracking and keplerian element data for the satellite.

Feedback or suggestion? Click here.




ElementValue
Catalog44368
Name2019-037D
Epoch Orbit453
Epoch Day209.6193913
Epoch Year2019
RAAN125.8619
Inclination45.0119
Eccentricity0.0013148
Argument of Perigee83.4327
Mean Anonmoly276.806
Mean Motion15.38862389
Decay Rate-3.46E-06
L11 44368U 19037D 19209.61939130 -.00000346 00000-0 00000-0 0 9992
L22 44368 45.0119 125.8619 0013148 83.4327 276.8060 15.38862389 4537

Live tracking and technical data element details for 2019-037D (NORAD 44368). 2019-037D can be tracked NOW for your location showing map with azimuth and elevation plus other details from your city location.

Track the satellite on the map from your city or location and see movement details for azimuth, elevation, latitude, longitude, range, height, and movement on the map or in text.







IsCatalogInMostPopularTable: catalog: 44368, numindb: 28
Update: records affected: 1



GetName: 44368 2019-037D

Hit Count: updated at: Wed, 23 Oct 2019 00:51:16 GMT